EUTELSAT 172B

Last updated on Sun Apr 12 2026 00:02:54 GMT+0000 (Coordinated Universal Time)

1 42741U 17029B 26101.46780859 -.00000004 00000+0 00000+0 0 9997 2 42741 0.0146 177.1858 0000219 298.9910 63.9122 1.00270881 33071
UTC large
Height (km)
Speed (km/s)
/
Latitude / Longitude
Inclination (degrees)
Orbital Period (minutes)
Azimuth
Elevation
Range (km)
Doppler Factor

Next 0 passes for location: London (51.5072 / 0.1276)

Sorry there are no passes over London.
EUTELSAT 172B